This is the latest recevied weather packets stored in our database for station/object KM4RT-13. If no packets are shown the sender has not sent any weather packets the latest 10 day(s).
| Time | Temp. | Humidity | Pressure | Rain* | Wind** | Luminosity | Snow |
|---|---|---|---|---|---|---|---|
| 1777466023 | 18.33° C | 99% | 1010.7 hPa | 0 mm | - | 42 W/m² | - |
| 1777465720 | 18.33° C | 99% | 1010.3 hPa | 0 mm | - | 48 W/m² | - |
| 1777465416 | 18.33° C | 99% | 1010.2 hPa | 0 mm | - | 48 W/m² | - |
| 1777465114 | 18.33° C | 99% | 1010.2 hPa | 0 mm | - | 28 W/m² | - |
| 1777464810 | 18.33° C | 99% | 1010.2 hPa | 0 mm | - | 24 W/m² | - |
| 1777464505 | 18.33° C | 99% | 1010.1 hPa | 0 mm | - | 16 W/m² | - |
| 1777464202 | 18.33° C | 99% | 1009.8 hPa | 0 mm | - | 14 W/m² | - |
| 1777463902 | 18.33° C | 99% | 1009.7 hPa | 0 mm | - | 25 W/m² | - |
| 1777463598 | 18.33° C | 99% | 1009.5 hPa | 0 mm | - | 20 W/m² | - |
| 1777463293 | 18.33° C | 99% | 1009.4 hPa | 0 mm | - | 15 W/m² | - |
| 1777462990 | 18.33° C | 99% | 1009.3 hPa | 0 mm | - | 10 W/m² | - |
| 1777462685 | 18.33° C | 99% | 1009.5 hPa | 0 mm | - | 5 W/m² | - |
| 1777462380 | 18.33° C | 99% | 1009.4 hPa | 0 mm | - | 3 W/m² | - |
| 1777462076 | 18.33° C | 99% | 1009.2 hPa | 0 mm | - | 3 W/m² | - |
| 1777461774 | 18.89° C | 99% | 1009.2 hPa | 0 mm | - | 1 W/m² | - |
| 1777461469 | 18.89° C | 99% | 1009.2 hPa | 0 mm | - | 1 W/m² | - |
| 1777461166 | 18.89° C | 99% | 1009.2 hPa | 0 mm | - | 1 W/m² | - |
| 1777460861 | 18.89° C | 99% | 1009.3 hPa | 0 mm | - | 1 W/m² | - |
| 1777460557 | 18.89° C | 99% | 1009.1 hPa | 0 mm | - | 0 W/m² | - |
| 1777460253 | 18.89° C | 99% | 1009.1 hPa | 0 mm | - | 0 W/m² | - |
| 1777459950 | 18.89° C | 99% | 1008.8 hPa | 0 mm | - | 0 W/m² | - |
| 1777459647 | 18.89° C | 99% | 1008.8 hPa | 0 mm | - | 0 W/m² | - |
| 1777459343 | 18.89° C | 99% | 1009 hPa | 0 mm | - | 0 W/m² | - |
| 1777459042 | 19.44° C | 99% | 1009 hPa | 0 mm | - | 0 W/m² | - |
| 1777458739 | 19.44° C | 99% | 1009 hPa | 0 mm | - | 0 W/m² | - |
* Rain latest hour (hover to see other rain measurements)
** Current wind speed in m/s (hover to see current wind gust speed)